DW5018 Cobb Island MD US current weather conditions

sailwx.info

Wind from 065 at 2 knots gusting 6

Air temperature 27.2° C
Dewpoint 23.9° C

Last reported at 2019-Aug-23 14:03 UTC.
Time now 2019-Aug-23 14:18 UTC

Location: N 38°16' W 076°51'.
View on Google Maps.

See reports from other nearby stations

  
Tides and Currents Weather Stations Pressure Air Temp Water Temp Dewpoint Dewpoint Depression Visibility Wind Speed Wind Dir Waves Ship Positions
date/time (UTC)wind fromknots sea level pressurealtimeterstation pressurevisibilityair tempwater tempwave heightnotes
2019-Aug-23 14:03 065 2 gusting 6 27.2
2019-Aug-23 13:58 061 2 gusting 6 27.2
2019-Aug-23 13:53 061 1 gusting 5 27.2
2019-Aug-23 13:48 058 2 gusting 4 27.2
2019-Aug-23 13:43 339 1 gusting 3 27.2
2019-Aug-23 13:38 023 0 gusting 5 26.7
2019-Aug-23 13:33 011 2 gusting 6 26.7
2019-Aug-23 13:28 071 2 gusting 6 26.7
2019-Aug-23 13:23 041 0 gusting 5 26.7
2019-Aug-23 13:18 037 0 gusting 5 26.7
2019-Aug-23 13:13 350 26.1
2019-Aug-23 13:08 017 2 gusting 5 26.1
2019-Aug-23 13:03 017 0 gusting 4 26.1
2019-Aug-23 12:58 182 1 gusting 6 26.1
2019-Aug-23 12:53 061 1 gusting 6 26.1
2019-Aug-23 12:48 058 2 gusting 5 26.1
2019-Aug-23 12:43 057 2 gusting 5 26.1
2019-Aug-23 12:38 344 3 gusting 4 26.1
2019-Aug-23 12:33 304 1 gusting 4 25.6
2019-Aug-23 12:28 011 2 gusting 4 25.6
2019-Aug-23 12:23 288 0 gusting 5 25.6
2019-Aug-23 12:18 320 2 gusting 5 25.0
2019-Aug-23 12:13 321 1 gusting 3 25.0
2019-Aug-23 12:08 334 0 gusting 3 25.0
2019-Aug-23 12:03 298 0 gusting 1 25.0
2019-Aug-23 11:58 333 0 gusting 1 25.0
2019-Aug-23 11:53 350 25.0
2019-Aug-23 11:48 350 24.4
2019-Aug-23 11:43 350 24.4
2019-Aug-23 11:38 350 0 gusting 0 24.4
2019-Aug-23 11:33 350 24.4
2019-Aug-23 11:28 350 24.4
2019-Aug-23 11:23 350 24.4
2019-Aug-23 11:18 350 1 gusting 2 24.4
2019-Aug-23 11:13 338 1 gusting 2 24.4
2019-Aug-23 11:08 350 0 gusting 3 24.4
2019-Aug-23 11:03 355 0 gusting 3 24.4
2019-Aug-23 10:58 303 1 gusting 3 23.9
2019-Aug-23 10:53 315 1 gusting 4 23.9
2019-Aug-23 10:48 322 1 gusting 4 23.9
2019-Aug-23 10:43 319 1 gusting 4 23.9
2019-Aug-23 10:38 305 1 gusting 3 23.9
2019-Aug-23 10:33 316 1 gusting 5 23.9
2019-Aug-23 10:28 309 1 gusting 5 23.9
2019-Aug-23 10:23 315 1 gusting 3 23.9
2019-Aug-23 10:18 306 1 gusting 2 23.9
2019-Aug-23 10:13 324 1 gusting 4 23.9
2019-Aug-23 10:08 338 0 gusting 4 24.4
2019-Aug-23 10:03 347 1 gusting 5 24.4
2019-Aug-23 09:58 279 1 gusting 5 24.4
2019-Aug-23 09:53 288 3 gusting 5 24.4
2019-Aug-23 09:48 281 2 gusting 5 24.4
2019-Aug-23 09:43 310 1 gusting 7 24.4
2019-Aug-23 09:38 315 4 gusting 8 24.4
2019-Aug-23 09:33 296 5 gusting 9 24.4
2019-Aug-23 09:28 284 6 gusting 9 24.4
2019-Aug-23 09:23 277 6 gusting 8 24.4
2019-Aug-23 09:18 315 2 gusting 9 24.4
2019-Aug-23 09:13 296 4 gusting 9 24.4
2019-Aug-23 09:08 284 5 gusting 9 24.4
2019-Aug-23 09:03 281 4 gusting 9 24.4
2019-Aug-23 08:58 288 6 gusting 9 24.4
2019-Aug-23 08:53 283 5 gusting 11 24.4
2019-Aug-23 08:48 263 6 gusting 11 24.4
2019-Aug-23 08:43 297 6 gusting 10 25.0
2019-Aug-23 08:38 292 7 gusting 10 25.0
2019-Aug-23 08:33 250 6 gusting 10 25.0
2019-Aug-23 08:28 277 7 gusting 10 25.0
2019-Aug-23 08:23 270 5 gusting 10 25.0
2019-Aug-23 08:18 314 7 gusting 10 25.0
2019-Aug-23 08:13 265 6 gusting 11 25.0
2019-Aug-23 08:08 279 7 gusting 11 25.0
2019-Aug-23 08:03 270 6 gusting 9 25.0
2019-Aug-23 07:58 272 5 gusting 10 25.0
2019-Aug-23 07:53 262 6 gusting 10 25.0
2019-Aug-23 07:48 257 7 gusting 10 25.0
2019-Aug-23 07:43 279 6 gusting 13 25.0
2019-Aug-23 07:38 257 8 gusting 13 25.6
2019-Aug-23 07:33 302 6 gusting 11 25.6
2019-Aug-23 07:28 289 6 gusting 11 25.6
2019-Aug-23 07:23 269 7 gusting 11 25.6
2019-Aug-23 07:18 278 7 gusting 11 25.6
2019-Aug-23 07:13 292 6 gusting 8 25.6
2019-Aug-23 07:08 288 4 gusting 9 25.6
2019-Aug-23 07:03 284 5 gusting 9 25.6
2019-Aug-23 06:58 259 6 gusting 9 25.0
2019-Aug-23 06:53 261 5 gusting 6 25.6
2019-Aug-23 06:48 263 3 gusting 6 25.6
2019-Aug-23 06:43 306 4 gusting 8 25.6
2019-Aug-23 06:38 264 5 gusting 8 25.6
2019-Aug-23 06:33 262 5 gusting 9 25.6
2019-Aug-23 06:28 281 6 gusting 9 25.6
2019-Aug-23 06:23 271 6 gusting 9 25.6
2019-Aug-23 06:18 282 5 gusting 11 25.6
2019-Aug-23 06:13 301 6 gusting 11 25.6
2019-Aug-23 06:08 296 6 gusting 11 25.6
2019-Aug-23 06:03 256 7 gusting 9 25.0
2019-Aug-23 05:58 278 6 gusting 10 25.0
2019-Aug-23 05:53 271 6 gusting 11 25.0
2019-Aug-23 05:48 272 6 gusting 11 25.0
2019-Aug-23 05:43 268 8 gusting 11 25.0
2019-Aug-23 05:38 261 6 gusting 11 25.6
2019-Aug-23 05:33 252 7 gusting 10 25.6
2019-Aug-23 05:28 259 6 gusting 10 25.6
2019-Aug-23 05:23 250 5 gusting 10 25.6
2019-Aug-23 05:18 232 5 gusting 11 25.6
2019-Aug-23 05:13 265 7 gusting 11 25.6
2019-Aug-23 05:08 252 6 gusting 10 25.6
2019-Aug-23 05:03 252 7 gusting 10 25.6
2019-Aug-23 04:58 244 4 gusting 10 25.6
2019-Aug-23 04:53 223 6 gusting 10 25.6
2019-Aug-23 04:48 238 6 gusting 8 25.6
2019-Aug-23 04:43 215 3 gusting 8 25.6
2019-Aug-23 04:38 203 5 gusting 7 25.6
2019-Aug-23 04:33 264 4 gusting 6 25.6
2019-Aug-23 04:28 213 3 gusting 6 25.6
2019-Aug-23 04:23 227 2 gusting 6 25.6
2019-Aug-23 04:18 265 3 gusting 6 25.6
2019-Aug-23 04:13 270 2 gusting 6 25.6
2019-Aug-23 04:08 238 3 gusting 6 25.6
2019-Aug-23 04:03 252 4 gusting 9 25.6
2019-Aug-23 03:58 267 4 gusting 9 25.6
2019-Aug-23 03:53 240 4 gusting 8 25.6
2019-Aug-23 03:48 240 6 gusting 8 25.6
2019-Aug-23 03:43 269 3 gusting 7 25.6
2019-Aug-23 03:38 250 4 gusting 7 25.6
2019-Aug-23 03:33 229 3 gusting 5 25.6
2019-Aug-23 03:28 229 3 gusting 5 25.6
2019-Aug-23 03:23 267 4 gusting 8 25.6
2019-Aug-23 03:18 252 3 gusting 8 25.6
2019-Aug-23 03:13 260 4 gusting 8 25.6
2019-Aug-23 03:08 232 4 gusting 6 25.6
2019-Aug-23 03:03 299 4 gusting 7 25.6
2019-Aug-23 02:58 248 5 gusting 8 25.6
2019-Aug-23 02:53 259 5 gusting 9 25.6
2019-Aug-23 02:48 262 6 gusting 9 25.6
2019-Aug-23 02:43 273 5 gusting 9 25.6
2019-Aug-23 02:38 265 5 gusting 8 25.6
2019-Aug-23 02:33 232 5 gusting 9 25.6
2019-Aug-23 02:28 263 6 gusting 9 25.6
2019-Aug-23 02:23 271 5 gusting 9 25.6
2019-Aug-23 02:18 248 6 gusting 8 25.6
2019-Aug-23 02:13 252 6 gusting 8 25.6
2019-Aug-23 02:08 248 5 gusting 8 25.6
2019-Aug-23 02:03 277 5 gusting 7 26.1
2019-Aug-23 01:58 266 6 gusting 7 26.1
2019-Aug-23 01:53 265 4 gusting 7 26.1
2019-Aug-23 01:48 246 4 gusting 7 26.1
2019-Aug-23 01:43 264 5 gusting 8 26.1
2019-Aug-23 01:38 275 6 gusting 9 26.1
2019-Aug-23 01:33 262 5 gusting 9 26.1
2019-Aug-23 01:28 240 5 gusting 10 26.1
2019-Aug-23 01:23 255 6 gusting 12 26.1
2019-Aug-23 01:18 268 5 gusting 12 26.1
2019-Aug-23 01:13 292 4 gusting 10 26.1
2019-Aug-23 01:08 230 3 gusting 9 26.1
2019-Aug-23 01:03 286 6 gusting 11 26.1
2019-Aug-23 00:58 296 6 gusting 13 26.1
2019-Aug-23 00:53 239 6 gusting 13 26.1
2019-Aug-23 00:48 259 8 gusting 13 26.7
2019-Aug-23 00:43 277 7 gusting 13 26.7
2019-Aug-23 00:38 248 6 gusting 13 26.7
2019-Aug-23 00:33 268 9 gusting 13 26.7
2019-Aug-23 00:28 262 7 gusting 13 26.7
2019-Aug-23 00:23 271 6 gusting 10 26.7
2019-Aug-23 00:18 284 6 gusting 13 26.7
2019-Aug-23 00:13 259 5 gusting 15 27.2
2019-Aug-23 00:08 242 8 gusting 15 27.2
2019-Aug-23 00:03 285 7 gusting 13 27.8
2019-Aug-22 23:58 230 8 gusting 17 28.3
2019-Aug-22 23:53 304 12 gusting 17 28.9
2019-Aug-22 23:48 261 10 gusting 14 28.9
2019-Aug-22 23:43 219 8 gusting 15 29.4
2019-Aug-22 23:38 248 6 gusting 16 30.0
2019-Aug-22 23:33 206 9 gusting 16 30.0
2019-Aug-22 23:28 200 7 gusting 13 31.1
2019-Aug-22 23:23 205 4 gusting 7 31.1
2019-Aug-22 23:18 199 4 gusting 7 31.1
2019-Aug-22 23:13 163 3 gusting 6 31.1
2019-Aug-22 23:08 178 3 gusting 6 31.1
2019-Aug-22 23:03 186 4 gusting 6 31.7
2019-Aug-22 22:58 159 3 gusting 5 31.7
2019-Aug-22 22:53 192 2 gusting 6 31.7
2019-Aug-22 22:48 184 3 gusting 6 31.7
2019-Aug-22 22:43 167 2 gusting 5 32.2
2019-Aug-22 22:38 192 2 gusting 5 32.2
2019-Aug-22 22:33 167 2 gusting 5 31.7
2019-Aug-22 22:28 179 1 gusting 4 32.2
2019-Aug-22 22:23 165 1 gusting 4 32.2
2019-Aug-22 22:18 167 1 gusting 5 32.2
2019-Aug-22 22:13 164 2 gusting 5 32.2
2019-Aug-22 22:08 162 3 gusting 5 32.2
2019-Aug-22 22:03 167 1 gusting 3 32.2
2019-Aug-22 21:58 172 1 gusting 3 32.2
2019-Aug-22 21:53 172 0 gusting 4 32.2
2019-Aug-22 21:48 172 2 gusting 4 32.2
2019-Aug-22 21:43 176 2 gusting 4 32.2
2019-Aug-22 21:38 159 0 gusting 4 32.2
2019-Aug-22 21:33 171 1 gusting 5 32.2
2019-Aug-22 21:28 142 4 gusting 6 32.2
2019-Aug-22 21:23 128 5 gusting 7 32.2
2019-Aug-22 21:18 136 6 gusting 7 32.2
2019-Aug-22 21:13 138 5 gusting 6 32.2
2019-Aug-22 21:08 119 6 gusting 6 32.2
2019-Aug-22 21:03 120 4 gusting 6 32.2
2019-Aug-22 20:58 130 5 gusting 6 32.2
2019-Aug-22 20:53 135 5 gusting 6 32.2
2019-Aug-22 20:48 126 4 gusting 7 32.2
2019-Aug-22 20:43 138 5 gusting 7 32.2
2019-Aug-22 20:38 123 5 gusting 6 32.2
2019-Aug-22 20:33 150 1 gusting 6 32.2
2019-Aug-22 20:28 126 5 gusting 6 32.2
2019-Aug-22 20:23 127 5 gusting 9 32.2
2019-Aug-22 20:18 132 6 gusting 9 32.2
2019-Aug-22 20:13 136 5 gusting 6 32.2
2019-Aug-22 20:08 137 6 gusting 6 32.2
2019-Aug-22 20:03 126 5 gusting 7 32.2
2019-Aug-22 19:58 110 5 gusting 7 31.7
2019-Aug-22 19:53 129 6 gusting 7 32.2
2019-Aug-22 19:48 120 5 gusting 6 32.2
2019-Aug-22 19:43 125 5 gusting 6 32.2
2019-Aug-22 19:38 177 3 gusting 6 32.2
2019-Aug-22 19:33 171 3 gusting 6 32.2
2019-Aug-22 19:28 192 1 gusting 6 32.2
2019-Aug-22 19:23 138 2 gusting 6 32.2
2019-Aug-22 19:18 173 4 gusting 6 32.2
2019-Aug-22 19:13 207 3 gusting 6 32.2
2019-Aug-22 19:08 217 3 gusting 6 32.2
2019-Aug-22 19:03 258 1 gusting 6 32.2
2019-Aug-22 18:58 217 1 gusting 6 32.2
2019-Aug-22 18:53 227 1 gusting 6 32.2
2019-Aug-22 18:48 213 2 gusting 6 32.2
2019-Aug-22 18:43 266 3 gusting 6 32.2
2019-Aug-22 18:38 254 3 gusting 6 32.2
2019-Aug-22 18:33 207 3 gusting 6 32.2
2019-Aug-22 18:28 217 2 gusting 5 32.2
2019-Aug-22 18:23 238 2 gusting 5 32.2
2019-Aug-22 18:18 240 3 gusting 5 32.2
2019-Aug-22 18:13 258 2 gusting 5 32.2
2019-Aug-22 18:08 242 3 gusting 5 31.7
2019-Aug-22 18:03 236 3 gusting 5 32.2
2019-Aug-22 17:58 275 1 gusting 4 32.2
2019-Aug-22 17:53 283 1 gusting 5 31.7
2019-Aug-22 17:48 256 4 gusting 5 31.7
2019-Aug-22 17:43 252 2 gusting 4 31.7
2019-Aug-22 17:38 263 2 gusting 3 31.7
2019-Aug-22 17:33 285 1 gusting 4 31.7
2019-Aug-22 17:28 265 2 gusting 6 31.7
2019-Aug-22 17:23 279 3 gusting 6 31.1
2019-Aug-22 17:18 240 2 gusting 4 31.1
2019-Aug-22 17:13 245 2 gusting 3 31.1
2019-Aug-22 17:08 235 1 gusting 5 31.1
2019-Aug-22 17:03 218 2 gusting 5 31.1
2019-Aug-22 16:58 242 1 gusting 5 31.1
2019-Aug-22 16:53 267 4 gusting 5 31.1
2019-Aug-22 16:48 277 1 gusting 3 31.1
2019-Aug-22 16:43 269 2 gusting 3 30.6
2019-Aug-22 16:38 250 1 gusting 5 30.6
2019-Aug-22 16:33 261 2 gusting 5 30.6
2019-Aug-22 16:28 241 2 gusting 5 30.6
2019-Aug-22 16:23 244 2 gusting 5 30.6
2019-Aug-22 16:18 240 2 gusting 5 30.0
2019-Aug-22 16:13 238 3 gusting 5 30.0
2019-Aug-22 16:08 255 3 gusting 4 30.0
2019-Aug-22 16:03 234 2 gusting 4 29.4
2019-Aug-22 15:58 213 1 gusting 4 29.4
2019-Aug-22 15:53 209 3 gusting 5 29.4
2019-Aug-22 15:48 194 3 gusting 5 29.4
2019-Aug-22 15:43 217 1 gusting 6 29.4
2019-Aug-22 15:38 252 2 gusting 6 28.9
2019-Aug-22 15:33 249 3 gusting 5 28.9
2019-Aug-22 15:28 247 2 gusting 5 28.9
2019-Aug-22 15:23 258 2 gusting 4 28.9
2019-Aug-22 15:18 244 1 gusting 3 28.9
2019-Aug-22 15:13 272 1 gusting 4 28.9
2019-Aug-22 15:08 267 2 gusting 4 28.3
2019-Aug-22 15:03 239 1 gusting 3 28.3
2019-Aug-22 14:58 259 1 gusting 4 28.3
2019-Aug-22 14:53 271 2 gusting 5 28.3
2019-Aug-22 14:48 268 2 gusting 6 27.8
2019-Aug-22 14:43 272 4 gusting 6 27.8
2019-Aug-22 14:38 275 2 gusting 4 27.8
2019-Aug-22 14:33 284 1 gusting 3 27.8
2019-Aug-22 14:28 257 1 gusting 3 27.8
2019-Aug-22 14:23 270 3 gusting 4 27.8
2019-Aug-22 14:18 271 2 gusting 4 27.2
2019-Aug-22 14:13 282 3 gusting 4 27.2
2019-Aug-22 14:08 273 3 gusting 4 27.2
2019-Aug-22 14:03 272 2 gusting 4 27.2
2019-Aug-22 13:58 269 2 gusting 4 27.2
2019-Aug-22 13:53 291 1 gusting 4 27.2
2019-Aug-22 13:48 273 2 gusting 4 26.7
2019-Aug-22 13:43 280 2 gusting 4 26.7
2019-Aug-22 13:38 261 2 gusting 6 26.7
2019-Aug-22 13:33 278 3 gusting 6 26.7
2019-Aug-22 13:28 267 2 gusting 6 26.7
2019-Aug-22 13:23 271 4 gusting 6 26.1
2019-Aug-22 13:18 270 4 gusting 6 26.1
2019-Aug-22 13:13 280 4 gusting 6 26.1
2019-Aug-22 13:08 267 4 gusting 5 26.1
2019-Aug-22 13:03 276 4 gusting 6 26.1
2019-Aug-22 12:58 267 4 gusting 5 25.6
2019-Aug-22 12:53 287 3 gusting 6 25.6
2019-Aug-22 12:48 286 4 gusting 6 25.6
2019-Aug-22 12:43 286 5 gusting 6 25.6
2019-Aug-22 12:38 285 4 gusting 6 25.6
2019-Aug-22 12:33 261 3 gusting 6 25.6
2019-Aug-22 12:28 281 5 gusting 6 25.6
2019-Aug-22 12:23 300 6 gusting 8 25.6
2019-Aug-22 12:18 297 6 gusting 8 25.6
2019-Aug-22 12:13 262 6 gusting 7 25.6
2019-Aug-22 12:08 287 5 gusting 8 25.6
2019-Aug-22 12:03 275 4 gusting 8 25.0
2019-Aug-22 11:58 261 6 gusting 8 25.0
2019-Aug-22 11:53 286 5 gusting 9 25.0
2019-Aug-22 11:48 284 6 gusting 9 25.0
2019-Aug-22 11:43 282 5 gusting 8 25.0
2019-Aug-22 11:38 269 5 gusting 7 25.0
2019-Aug-22 11:33 267 6 gusting 7 25.0
2019-Aug-22 11:28 268 4 gusting 7 25.0
2019-Aug-22 11:23 274 6 gusting 8 25.0
2019-Aug-22 11:18 261 5 gusting 8 25.0
2019-Aug-22 11:13 272 6 gusting 8 25.0
2019-Aug-22 11:08 261 6 gusting 8 25.0
2019-Aug-22 11:03 278 6 gusting 8 25.0
2019-Aug-22 10:58 280 6 gusting 8 25.0
2019-Aug-22 10:53 271 6 gusting 8 25.0
2019-Aug-22 10:48 279 4 gusting 8 25.0
2019-Aug-22 10:43 252 6 gusting 9 25.0
2019-Aug-22 10:38 265 6 gusting 9 25.0
2019-Aug-22 10:33 275 5 gusting 8 25.0
2019-Aug-22 10:28 272 6 gusting 8 25.0
2019-Aug-22 10:23 282 5 gusting 7 25.0
2019-Aug-22 10:18 273 6 gusting 8 25.0
2019-Aug-22 10:13 256 6 gusting 9 25.0
2019-Aug-22 10:08 262 6 gusting 11 25.0
2019-Aug-22 10:03 263 6 gusting 11 25.6
2019-Aug-22 09:58 275 6 gusting 10 25.0
2019-Aug-22 09:53 266 6 gusting 10 25.6
2019-Aug-22 09:48 271 6 gusting 9 25.6
2019-Aug-22 09:43 258 6 gusting 9 25.6
2019-Aug-22 09:38 265 8 gusting 9 25.6
2019-Aug-22 09:33 279 6 gusting 9 25.6
2019-Aug-22 09:28 265 6 gusting 8 25.6
2019-Aug-22 09:23 287 6 gusting 8 25.6
2019-Aug-22 09:18 252 6 gusting 9 25.6
2019-Aug-22 09:13 252 6 gusting 10 25.6
2019-Aug-22 09:08 270 7 gusting 10 25.6
2019-Aug-22 09:03 265 7 gusting 9 25.6
2019-Aug-22 08:58 270 6 gusting 10 25.6
2019-Aug-22 08:53 279 6 gusting 10 25.6
2019-Aug-22 08:48 275 6 gusting 10 25.6
2019-Aug-22 08:43 260 6 gusting 9 25.6
2019-Aug-22 08:38 286 7 gusting 9 25.6
2019-Aug-22 08:33 263 6 gusting 9 25.6
2019-Aug-22 08:28 277 6 gusting 10 25.6
2019-Aug-22 08:23 271 6 gusting 10 26.1
2019-Aug-22 08:18 263 5 gusting 8 26.1
2019-Aug-22 08:13 263 6 gusting 8 26.1
2019-Aug-22 08:08 261 6 gusting 7 26.1
2019-Aug-22 08:03 276 5 gusting 7 26.1
2019-Aug-22 07:58 258 6 gusting 9 26.1
2019-Aug-22 07:53 265 5 gusting 9 26.1
2019-Aug-22 07:48 279 5 gusting 8 26.7
2019-Aug-22 07:43 266 5 gusting 8 26.7
2019-Aug-22 07:38 254 6 gusting 9 26.7
2019-Aug-22 07:33 257 6 gusting 8 26.7
2019-Aug-22 07:28 269 6 gusting 8 26.7
2019-Aug-22 07:23 248 6 gusting 7 26.7
2019-Aug-22 07:18 255 5 gusting 6 26.7
2019-Aug-22 07:13 264 3 gusting 6 26.7
2019-Aug-22 07:08 262 5 gusting 6 26.7
2019-Aug-22 07:03 273 4 gusting 6 26.7
2019-Aug-22 06:58 315 1 gusting 4 26.7
2019-Aug-22 06:53 325 1 gusting 4 26.7
2019-Aug-22 06:48 325 0 gusting 6 27.2
2019-Aug-22 06:43 284 4 gusting 6 27.2
2019-Aug-22 06:38 259 5 gusting 8 27.2
2019-Aug-22 06:33 267 5 gusting 8 27.2
2019-Aug-22 06:28 281 5 gusting 7 27.2
2019-Aug-22 06:23 275 5 gusting 7 27.8
2019-Aug-22 06:18 267 6 gusting 7 27.8
2019-Aug-22 06:13 271 6 gusting 8 27.8
2019-Aug-22 06:08 268 6 gusting 8 27.2
2019-Aug-22 06:03 244 3 gusting 5 26.7
2019-Aug-22 05:58 296 1 gusting 4 26.1
2019-Aug-22 05:53 336 0 gusting 1 26.1
2019-Aug-22 05:48 333 0 gusting 1 26.7
2019-Aug-22 05:43 333 0 gusting 1 26.7
2019-Aug-22 05:38 333 0 gusting 4 27.2
2019-Aug-22 05:33 333 1 gusting 4 27.2
2019-Aug-22 05:28 005 0 gusting 2 27.2
2019-Aug-22 05:23 005 0 gusting 2 27.2
2019-Aug-22 05:18 005 1 gusting 4 27.2
2019-Aug-22 05:13 012 1 gusting 4 27.2
2019-Aug-22 05:08 292 0 gusting 3 27.2
2019-Aug-22 05:03 344 0 gusting 2 27.2
2019-Aug-22 04:58 344 27.2
2019-Aug-22 04:53 344 0 gusting 3 27.2
2019-Aug-22 04:48 348 27.2
2019-Aug-22 04:43 344 0 gusting 4 27.8
2019-Aug-22 04:38 340 1 gusting 6 27.8
2019-Aug-22 04:33 323 3 gusting 6 27.8
2019-Aug-22 04:28 292 3 gusting 10 27.8
2019-Aug-22 04:23 315 2 gusting 10 28.3
2019-Aug-22 04:18 300 4 gusting 8 28.3
2019-Aug-22 04:13 256 6 gusting 8 28.3
2019-Aug-22 04:08 251 6 gusting 11 28.3
2019-Aug-22 04:03 242 5 gusting 11 27.8
2019-Aug-22 03:58 243 3 gusting 7 27.2
2019-Aug-22 03:53 251 1 gusting 4 26.7
2019-Aug-22 03:48 064 0 gusting 3 26.7
2019-Aug-22 03:43 030 1 gusting 2 26.7
2019-Aug-22 03:38 327 26.7
2019-Aug-22 03:33 327 26.7
2019-Aug-22 03:28 327 1 gusting 3 26.7
2019-Aug-22 03:23 321 0 gusting 4 26.7
2019-Aug-22 03:18 347 2 gusting 6 26.7
2019-Aug-22 03:13 342 2 gusting 7 27.2
2019-Aug-22 03:08 289 5 gusting 10 27.2
2019-Aug-22 03:03 292 6 gusting 11 27.2
2019-Aug-22 02:58 267 7 gusting 11 27.2
2019-Aug-22 02:53 300 7 gusting 13 27.2
2019-Aug-22 02:48 248 6 gusting 13 27.2
2019-Aug-22 02:43 244 6 gusting 13 26.7
2019-Aug-22 02:38 310 5 gusting 7 26.7
2019-Aug-22 02:33 314 3 gusting 8 26.7
2019-Aug-22 02:28 257 5 gusting 11 26.7
2019-Aug-22 02:23 239 6 gusting 11 27.2
2019-Aug-22 02:18 279 5 gusting 7 27.2
2019-Aug-22 02:13 294 3 gusting 6 27.2
2019-Aug-22 02:08 301 2 gusting 6 27.2
2019-Aug-22 02:03 205 1 gusting 6 27.2
2019-Aug-22 01:58 238 4 gusting 6 27.2
2019-Aug-22 01:53 267 0 gusting 6 27.2
2019-Aug-22 01:48 263 3 gusting 8 27.2
2019-Aug-22 01:43 253 2 gusting 9 27.2
2019-Aug-22 01:38 232 5 gusting 11 27.2
2019-Aug-22 01:33 186 1 gusting 11 27.2
2019-Aug-22 01:28 231 5 gusting 8 27.2
2019-Aug-22 01:23 232 3 gusting 7 27.8
2019-Aug-22 01:18 227 2 gusting 6 27.2
2019-Aug-22 01:13 261 4 gusting 7 27.8
2019-Aug-22 01:08 207 2 gusting 9 27.2
2019-Aug-22 01:03 314 3 gusting 13 27.2
2019-Aug-22 00:58 254 6 gusting 10 27.2
2019-Aug-22 00:53 265 3 gusting 6 27.2
2019-Aug-22 00:48 211 2 gusting 5 26.7
2019-Aug-22 00:43 195 0 gusting 6 26.7
2019-Aug-22 00:33 250 5 gusting 9 26.7
2019-Aug-22 00:28 245 4 gusting 10 26.7
2019-Aug-22 00:23 261 6 gusting 13 26.7
2019-Aug-22 00:18 242 7 gusting 13 26.7
2019-Aug-22 00:13 229 9 gusting 13 27.2
2019-Aug-22 00:08 240 9 gusting 13 27.8
2019-Aug-22 00:03 260 7 gusting 12 27.8
2019-Aug-21 23:58 275 7 gusting 12 27.8
2019-Aug-21 23:53 260 6 gusting 8 27.8
2019-Aug-21 23:48 254 6 gusting 7 28.3
2019-Aug-21 23:43 251 3 gusting 5 28.3
2019-Aug-21 23:38 263 3 gusting 6 28.3
2019-Aug-21 23:33 248 4 gusting 7 28.3
2019-Aug-21 23:28 231 5 gusting 7 28.3
2019-Aug-21 23:23 223 4 gusting 9 28.3
2019-Aug-21 23:18 271 6 gusting 10 28.3
2019-Aug-21 23:13 244 6 gusting 12 28.3
2019-Aug-21 23:08 290 7 gusting 14 28.3
2019-Aug-21 23:03 262 9 gusting 16 28.9
2019-Aug-21 22:58 254 6 gusting 22 28.9
2019-Aug-21 22:53 227 12 gusting 22 28.3
2019-Aug-21 22:48 236 6 gusting 13 28.3
2019-Aug-21 22:43 259 7 gusting 13 29.4
2019-Aug-21 22:38 254 6 gusting 12 30.0
2019-Aug-21 22:33 261 6 gusting 11 30.6
2019-Aug-21 22:28 242 6 gusting 8 30.6
2019-Aug-21 22:23 247 4 gusting 8 30.6
2019-Aug-21 22:18 223 5 gusting 7 30.6
2019-Aug-21 22:13 241 4 gusting 9 30.6
2019-Aug-21 22:08 246 3 gusting 7 31.1
2019-Aug-21 22:03 224 5 gusting 7 31.1
2019-Aug-21 21:58 213 4 gusting 7 31.1
2019-Aug-21 21:53 244 6 gusting 9 31.1
2019-Aug-21 21:48 246 6 gusting 9 31.1
2019-Aug-21 21:43 258 4 gusting 9 31.1
2019-Aug-21 21:38 213 4 gusting 9 31.1
2019-Aug-21 21:33 252 5 gusting 9 31.7
2019-Aug-21 21:28 240 5 gusting 8 31.7
2019-Aug-21 21:23 234 3 gusting 8 31.7
2019-Aug-21 21:18 238 3 gusting 8 31.7
2019-Aug-21 21:13 238 4 gusting 8 31.7
2019-Aug-21 21:08 223 6 gusting 8 31.7
2019-Aug-21 21:03 249 6 gusting 9 31.7
2019-Aug-21 20:58 239 6 gusting 9 31.7
2019-Aug-21 20:53 250 6 gusting 8 31.7
2019-Aug-21 20:48 251 4 gusting 8 31.7
2019-Aug-21 20:43 255 4 gusting 7 31.7
2019-Aug-21 20:38 221 4 gusting 10 31.7
2019-Aug-21 20:33 261 5 gusting 10 31.7
2019-Aug-21 20:28 261 6 gusting 8 31.7
2019-Aug-21 20:23 231 5 gusting 7 31.7
2019-Aug-21 20:18 204 3 gusting 6 31.7
2019-Aug-21 20:13 252 3 gusting 8 31.7
2019-Aug-21 20:08 248 3 gusting 8 31.1
2019-Aug-21 20:03 240 4 gusting 8 31.1
2019-Aug-21 19:58 232 3 gusting 7 31.1
2019-Aug-21 19:53 261 3 gusting 7 31.1
2019-Aug-21 19:48 211 4 gusting 8 31.1
2019-Aug-21 19:43 241 4 gusting 8 31.1
2019-Aug-21 19:38 234 4 gusting 8 31.1
2019-Aug-21 19:33 257 6 gusting 8 31.1
2019-Aug-21 19:28 242 6 gusting 8 31.1
2019-Aug-21 19:23 248 5 gusting 8 31.1
2019-Aug-21 19:18 255 5 gusting 7 31.1
2019-Aug-21 19:13 237 2 gusting 6 31.1
2019-Aug-21 19:08 198 3 gusting 6 31.1
2019-Aug-21 19:03 209 4 gusting 6 31.1
2019-Aug-21 18:58 248 2 gusting 9 31.1
2019-Aug-21 18:53 221 3 gusting 9 30.6
2019-Aug-21 18:48 219 5 gusting 9 30.6
2019-Aug-21 18:43 202 4 gusting 9 30.6
2019-Aug-21 18:38 217 6 gusting 9 30.6
2019-Aug-21 18:33 209 5 gusting 10 30.6
2019-Aug-21 18:28 179 5 gusting 13 30.6
2019-Aug-21 18:23 200 7 gusting 13 30.6
2019-Aug-21 18:18 204 4 gusting 9 30.6
2019-Aug-21 18:13 234 6 gusting 9 30.6
2019-Aug-21 18:08 209 6 gusting 9 30.6
2019-Aug-21 18:03 203 6 gusting 11 30.6
2019-Aug-21 17:58 200 4 gusting 11 30.0
2019-Aug-21 17:53 232 6 gusting 12 30.0
2019-Aug-21 17:48 225 6 gusting 12 30.0
2019-Aug-21 17:43 205 6 gusting 11 30.0
2019-Aug-21 17:38 207 6 gusting 11 30.0
2019-Aug-21 17:33 234 6 gusting 11 30.0
2019-Aug-21 17:28 207 6 gusting 13 30.0
2019-Aug-21 17:23 205 6 gusting 13 29.4
2019-Aug-21 17:18 223 5 gusting 11 29.4
2019-Aug-21 17:13 202 6 gusting 11 29.4
2019-Aug-21 17:08 157 6 gusting 13 29.4
2019-Aug-21 17:03 197 7 gusting 13 29.4
2019-Aug-21 16:58 183 6 gusting 11 29.4
2019-Aug-21 16:53 205 6 gusting 11 28.9
2019-Aug-21 16:48 165 4 gusting 10 28.9
2019-Aug-21 16:43 169 4 gusting 10 28.9
2019-Aug-21 16:38 153 3 gusting 10 28.3
2019-Aug-21 16:33 164 5 gusting 10 28.3
2019-Aug-21 16:28 173 3 gusting 6 28.3
2019-Aug-21 16:23 229 3 gusting 7 27.8
2019-Aug-21 16:18 205 4 gusting 7 27.8
2019-Aug-21 16:13 214 4 gusting 6 27.8
2019-Aug-21 16:08 234 5 gusting 6 27.8
2019-Aug-21 16:03 165 3 gusting 6 27.8
2019-Aug-21 15:58 213 4 gusting 6 27.8
2019-Aug-21 15:53 199 3 gusting 9 27.8
2019-Aug-21 15:48 246 5 gusting 9 27.8
2019-Aug-21 15:43 218 4 gusting 6 27.2
2019-Aug-21 15:38 229 2 gusting 6 27.2
2019-Aug-21 15:33 202 3 gusting 6 27.2
2019-Aug-21 15:28 224 5 gusting 6 27.2
2019-Aug-21 15:23 232 4 gusting 7 27.2
2019-Aug-21 15:18 241 5 gusting 7 26.7
2019-Aug-21 15:13 262 4 gusting 7 26.7
2019-Aug-21 15:08 242 4 gusting 8 26.7
2019-Aug-21 15:03 234 5 gusting 8 26.7
2019-Aug-21 14:58 228 4 gusting 7 26.7
2019-Aug-21 14:53 238 3 gusting 9 26.1
2019-Aug-21 14:48 218 6 gusting 10 26.1
2019-Aug-21 14:43 219 6 gusting 10 26.1
2019-Aug-21 14:38 236 5 gusting 9 26.1
2019-Aug-21 14:33 231 5 gusting 10 26.1
2019-Aug-21 14:28 234 5 gusting 10 26.1
2019-Aug-21 14:23 249 7 gusting 9 26.1
2019-Aug-21 14:18 215 5 gusting 8 26.1
2019-Aug-21 14:13 240 5 gusting 9 26.1
2019-Aug-21 14:08 218 5 gusting 9 26.1
2019-Aug-21 14:03 245 4 gusting 8 26.1